Weather History for Montague, CA

Change the Weather History Date:

Wednesday, February 13, 2013

  Actual Average Record
Temperature  
Mean Temperature 41 °F 39 °F  
Max Temperature 58 °F 50 °F 67 °F (1996)
Min Temperature 23 °F 28 °F 10 °F (1949)
Degree Days  
Heating Degree Days 24 26  
Month to date heating degree days 363 357  
Since 1 July heating degree days 3327 3509  
Cooling Degree Days 0 0  
Month to date cooling degree days 0 0  
Year to date cooling degree days 0 0  
Moisture  
Dew Point 29 °F    
Average Humidity 71    
Maximum Humidity 92    
Minimum Humidity 36    
Precipitation  
Precipitation 0.00 in 0.06 in 1.16 in (1961)
Month to date precipitation 0.22 0.84  
Year to date precipitation 0.93 3.04  
Sea Level Pressure  
Sea Level Pressure 30.49 in    
Wind  
Wind Speed 4 mph (NE)    
Max Wind Speed 16 mph    
Max Gust Speed 18 mph    
Visibility 10 miles    
Events      
T = Trace of Precipitation, MM = Missing Value Source: NWS Daily Summary

Daily Weather History Graph

Daily Weather History Graph

Search for Another Location

Airport:

Trip Planner

Search our weather history database for the weather conditions in past years. The results will help you decide how hot, cold, wet, or windy it might be!

Date:

Astronomy

Feb. 13, 2013 Rise Set
Actual Time 7:07 AM PST 5:41 PM PST
Civil Twilight 6:39 AM PST 6:09 PM PST
Nautical Twilight 6:06 AM PST 6:42 PM PST
Astronomical Twilight 5:34 AM PST 7:14 PM PST
Moon 8:35 AM PST (2/13) 9:54 PM PST (2/13)
Length of Visible Light 11h 30m
Length of Day
10h 33m
Waxing Crescent, 14% of the Moon is Illuminated
Feb 13
Waxing Crescent
Feb 17
First Quarter
Feb 25
Full
Mar 4
Last Quarter
Mar 11
New

Hourly Weather History & Observations

Time (PST) Temp. Windchill Dew Point Humidity Pressure Visibility Wind Dir Wind Speed Gust Speed Precip Events Conditions
12:53 AM 25.0 °F - 21.9 °F 88% 30.52 in 10.0 mi Calm Calm - N/A   Clear
1:53 AM 30.0 °F 21.1 °F 26.1 °F 85% 30.51 in 10.0 mi NE 10.4 mph - N/A   Clear
2:53 AM 25.0 °F - 23.0 °F 92% 30.51 in 10.0 mi Calm Calm - N/A   Clear
3:53 AM 25.0 °F 20.7 °F 21.9 °F 88% 30.51 in 10.0 mi SSW 3.5 mph - N/A   Mostly Cloudy
4:53 AM 26.1 °F 21.9 °F 24.1 °F 92% 30.53 in 10.0 mi Variable 3.5 mph - N/A   Mostly Cloudy
5:53 AM 28.9 °F - 27.0 °F 92% 30.52 in 10.0 mi Calm Calm - N/A   Overcast
6:53 AM 28.0 °F - 26.1 °F 92% 30.54 in 10.0 mi Calm Calm - N/A   Overcast
7:53 AM 30.0 °F - 27.0 °F 88% 30.53 in 10.0 mi Calm Calm - N/A   Overcast
8:53 AM 32.0 °F 28.7 °F 28.9 °F 88% 30.54 in 10.0 mi ENE 3.5 mph - N/A   Scattered Clouds
9:53 AM 37.0 °F - 30.9 °F 79% 30.54 in 10.0 mi Calm Calm - N/A   Clear
10:53 AM 42.1 °F - 32.0 °F 67% 30.52 in 10.0 mi Calm Calm - N/A   Clear
11:53 AM 46.0 °F - 32.0 °F 58% 30.50 in 10.0 mi Calm Calm - N/A   Clear
12:53 PM 52.0 °F - 33.1 °F 49% 30.46 in 10.0 mi Calm Calm - N/A   Clear
1:53 PM 55.0 °F - 33.1 °F 43% 30.43 in 10.0 mi Calm Calm - N/A   Clear
2:53 PM 55.9 °F - 33.1 °F 42% 30.42 in 10.0 mi Calm Calm - N/A   Clear
3:53 PM 57.0 °F - 30.9 °F 37% 30.41 in 10.0 mi NNE 12.7 mph - N/A   Clear
4:53 PM 55.0 °F - 30.9 °F 40% 30.42 in 10.0 mi North 15.0 mph - N/A   Clear
5:53 PM 48.0 °F - 32.0 °F 54% 30.43 in 10.0 mi NE 12.7 mph - N/A   Clear
6:53 PM 46.0 °F 40.2 °F 34.0 °F 63% 30.44 in 10.0 mi NE 12.7 mph - N/A   Clear
7:53 PM 44.1 °F 39.5 °F 33.1 °F 65% 30.46 in 10.0 mi NE 8.1 mph - N/A   Clear
8:53 PM 39.9 °F 35.1 °F 32.0 °F 73% 30.48 in 10.0 mi NNE 6.9 mph - N/A   Clear
9:53 PM 37.9 °F 30.5 °F 30.9 °F 76% 30.48 in 10.0 mi NE 11.5 mph - N/A   Clear
10:53 PM 39.0 °F - 32.0 °F 76% 30.49 in 10.0 mi Calm Calm - N/A   Clear
11:53 PM 35.1 °F - 28.9 °F 78% 30.49 in 10.0 mi Calm Calm - N/A   Clear